[[{"header":{"parameterUnit":"m.s-1","parameterCategory":1,"la1":30.2991,"la2":30.254,"lo1":-89.0895,"lo2":-89.0444,"dy":0.0017,"dx":0.0017,"nx":28,"ny":28,"refTime":"2025-09-18T03:00:00:Z","depth":0,"parameterNumber":2,"parameterNumberName":"U-component_of_WINDS"},"data":[0,0,0,0,0,0,0,0,0,0,0,0,0,0,0,0,0,0,0,0,0,0,0,0,0,0,0,0,0,0,0,0,0,0,0,0,0,0,0,0,0,0,0,0,0,0,0,0,0,0,0,0,0,0,0,0,0,0,-0.6618,-0.6617,0,-0.6518,-0.6516,-0.6515,-0.6436,-0.6435,-0.6434,-0.6434,-0.633,-0.6328,-0.6326,0,0,0,0,0,0,0,0,0,0,0,0,0,-0.6744,-0.6742,-0.6618,-0.6617,-0.6616,-0.6518,-0.6516,-0.6515,-0.6436,-0.6435,-0.6434,-0.6433,-0.6331,-0.6329,-0.6326,0,0,0,0,0,0,0,0,0,0,0,0,0,-0.6671,-0.6741,-0.6618,-0.6564,-0.6559,-0.6518,-0.6516,-0.6515,-0.6436,-0.6435,-0.6434,-0.6433,-0.6332,-0.6329,-0.6326,-0.6331,0,0,-0.6317,-0.6315,0,0,0,0,0,0,0,0,-0.6675,-0.6666,-0.6574,-0.6568,-0.6561,-0.6488,-0.6523,-0.6453,-0.6436,-0.6483,-0.6433,-0.6432,-0.6384,-0.6376,-0.636,-0.6326,-0.6322,-0.6316,-0.6315,-0.6313,-0.6312,0,0,0,0,0,0,0,-0.668,-0.667,-0.6578,-0.6572,-0.6565,-0.6546,-0.6534,-0.6509,-0.6441,-0.6479,-0.6473,-0.6462,-0.638,-0.6363,-0.6357,-0.632,-0.6317,-0.6314,-0.6312,-0.6311,-0.6288,-0.6289,0,0,0,0,0,0,-0.6694,-0.6675,-0.6582,-0.6575,-0.6617,-0.6545,-0.6532,-0.6513,-0.6441,-0.6429,-0.6463,-0.6458,-0.6369,-0.6361,-0.6353,-0.6356,-0.6313,-0.631,-0.6309,-0.6287,-0.6288,-0.629,0,0,0,0,0,0,-0.6697,-0.6686,-0.6586,-0.6624,-0.6609,-0.6544,-0.6523,-0.6511,-0.6494,-0.6429,-0.6417,-0.6458,-0.6368,-0.6357,-0.6338,-0.6352,-0.6309,-0.6306,-0.6285,-0.6287,-0.6289,-0.6362,0,0,0,0,0,0,-0.6701,-0.6688,-0.6688,-0.6624,-0.6608,-0.6571,-0.6524,-0.651,-0.6489,-0.6483,-0.6421,-0.641,-0.6366,-0.6343,-0.6335,-0.6347,-0.6304,-0.6284,-0.6286,-0.6288,-0.6358,-0.6366,-0.6372,0,0,0,0,0,-0.6705,-0.6712,-0.6689,-0.6678,-0.6607,-0.6572,-0.6563,-0.6512,-0.6491,-0.6491,-0.645,-0.6412,-0.6351,-0.6341,-0.6332,-0.6343,-0.6283,-0.6286,-0.6288,-0.6354,-0.6364,-0.6372,0,0,0,0,0,0,-0.6778,-0.6702,-0.6676,-0.6661,-0.6624,-0.6559,-0.6558,-0.6524,-0.6491,-0.6486,-0.6425,-0.6412,-0.6399,-0.6369,-0.6359,-0.6345,-0.6312,-0.6313,-0.6366,-0.6374,-0.6382,-0.639,-0.6301,0,0,0,0,0,-0.6793,-0.6771,-0.6706,-0.67,-0.6682,-0.6624,-0.6607,-0.6571,-0.653,-0.6514,-0.647,-0.6432,-0.6405,-0.6388,-0.6358,-0.6353,-0.634,-0.6356,-0.6364,-0.637,-0.6372,-0.6369,-0.6377,-0.6299,-0.6299,-0.6299,0,0,-0.6823,-0.6778,-0.6768,-0.6713,-0.668,-0.666,-0.6611,-0.659,-0.6575,-0.651,-0.649,-0.6457,-0.641,-0.6399,-0.6391,-0.6373,-0.639,-0.6373,-0.6379,-0.6377,-0.6373,-0.638,-0.6387,-0.63,-0.63,-0.63,0,0,-0.6866,-0.683,-0.6822,-0.679,-0.6741,-0.6703,-0.6701,-0.6642,-0.6618,-0.6596,-0.6548,-0.6529,-0.6482,-0.6452,-0.6431,-0.6467,-0.6431,-0.6459,-0.6498,-0.6496,-0.6502,-0.6507,-0.6522,-0.6528,-0.6461,-0.6461,-0.6461,0,-0.691,-0.6876,-0.6822,-0.6806,-0.6784,-0.6726,-0.6718,-0.669,-0.6634,-0.6621,-0.6601,-0.6544,-0.6508,-0.6489,-0.6499,-0.6482,-0.648,-0.6465,-0.6506,-0.651,-0.6514,-0.6528,-0.6533,-0.6464,-0.6464,-0.6464,-0.6463,0,-0.6933,-0.6911,-0.6911,-0.6859,-0.6837,-0.6825,-0.6771,-0.6756,-0.6723,-0.6687,-0.6667,-0.6623,-0.6585,-0.6578,-0.6545,-0.6556,-0.6546,-0.6517,-0.6483,-0.6526,-0.6538,-0.6543,-0.647,-0.6469,-0.6467,-0.6467,0,0,-0.7019,-0.6939,-0.694,-0.6918,-0.686,-0.6843,-0.6829,-0.6793,-0.6782,-0.6746,-0.6734,-0.6698,-0.6671,-0.6647,-0.661,-0.6609,-0.6643,-0.658,-0.6578,-0.6595,-0.6655,-0.6679,-0.6686,-0.6619,-0.662,-0.6621,-0.666,0,-0.7055,-0.7027,-0.698,-0.6968,-0.6948,-0.6894,-0.6882,-0.6847,-0.6813,-0.6793,-0.6756,-0.6732,-0.6697,-0.6683,-0.6679,-0.664,-0.6655,-0.6636,-0.6609,-0.6609,-0.6624,-0.6691,-0.6715,-0.6754,-0.6664,-0.6665,-0.6665,0,-0.7093,-0.7061,-0.7048,-0.6995,-0.6985,-0.6975,-0.694,-0.692,-0.6879,-0.6855,-0.683,-0.6791,-0.6775,-0.6744,-0.6723,-0.6712,-0.6698,-0.6678,-0.6678,-0.6674,-0.6641,-0.6691,-0.6765,-0.6772,-0.6671,-0.6671,-0.667,0,-0.7159,-0.7113,-0.71,-0.7082,-0.7019,-0.7014,-0.6988,-0.6946,-0.6928,-0.6897,-0.6885,-0.6853,-0.6836,-0.6812,-0.6766,-0.6747,-0.6751,-0.6715,-0.6732,-0.6734,-0.6736,-0.6737,-0.6811,-0.6725,-0.6725,-0.6725,-0.6725,0,-0.7205,-0.72,-0.713,-0.7122,-0.7115,-0.7061,-0.7056,-0.7024,-0.6988,-0.6974,-0.6925,-0.6913,-0.6852,-0.6833,-0.6797,-0.6787,-0.6778,-0.676,-0.6751,-0.6765,-0.6768,-0.6756,-0.6753,-0.6727,-0.6726,-0.6726,-0.6726,0,-0.7279,-0.7231,-0.7213,-0.7156,-0.7142,-0.7139,-0.709,-0.7081,-0.7046,-0.7029,-0.7022,-0.6967,-0.6943,-0.6894,-0.6856,-0.6832,-0.6831,-0.6813,-0.6845,-0.684,-0.686,-0.686,-0.693,-0.6938,-0.6847,-0.6848,-0.6848,0,-0.7312,-0.7306,-0.7249,-0.7236,-0.7212,-0.7192,-0.7174,-0.7121,-0.7105,-0.706,-0.7057,-0.703,-0.7005,-0.6969,-0.6926,-0.6898,-0.688,-0.6907,-0.6875,-0.6891,-0.6883,-0.6885,-0.6885,-0.6914,-0.6916,-0.6917,-0.6917,0,-0.7376,-0.7354,-0.733,-0.7298,-0.7279,-0.7251,-0.7221,-0.7214,-0.7155,-0.7139,-0.7114,-0.7095,-0.7058,-0.7032,-0.6998,-0.6971,-0.6936,-0.6928,-0.6931,-0.6946,-0.6966,-0.6957,-0.6866,-0.6926,-0.6925,-0.6925,-0.6924,-0.6924,-0.7431,-0.7425,-0.7385,-0.7361,-0.7333,-0.7307,-0.7297,-0.7261,-0.7239,-0.7205,-0.7175,-0.7154,-0.7116,-0.7066,-0.7043,-0.7026,-0.7008,-0.7012,-0.7013,-0.7015,-0.7022,-0.6968,-0.702,-0.7019,-0.7019,-0.7019,-0.7018,0,-0.7495,-0.7467,-0.7445,-0.7406,-0.7388,-0.7355,-0.7321,-0.7309,-0.729,-0.7258,-0.7235,-0.7208,-0.7183,-0.714,-0.7111,-0.7107,-0.709,-0.7101,-0.7102,-0.7097,-0.7039,-0.704,-0.7116,-0.7116,-0.7116,-0.7116,-0.7116,-0.7116,-0.7526,-0.7515,-0.7489,-0.7464,-0.7436,-0.7415,-0.7398,-0.7375,-0.7349,-0.7322,-0.7301,-0.7272,-0.7236,-0.7205,-0.7182,-0.717,-0.7163,-0.718,-0.7163,-0.711,-0.7101,-0.7092,-0.7093,-0.7178,-0.7178,-0.7222,-0.7223,-0.7223]},{"header":{"parameterUnit":"m.s-1","parameterCategory":1,"la1":30.2991,"la2":30.254,"lo1":-89.0895,"lo2":-89.0444,"dy":0.0017,"dx":0.0017,"nx":28,"ny":28,"refTime":"2025-09-18T03:00:00:Z","depth":0,"parameterNumber":3,"parameterNumberName":"V-component_of_WINDS"},"data":[0,0,0,0,0,0,0,0,0,0,0,0,0,0,0,0,0,0,0,0,0,0,0,0,0,0,0,0,0,0,0,0,0,0,0,0,0,0,0,0,0,0,0,0,0,0,0,0,0,0,0,0,0,0,0,0,0,0,3.4387,3.4387,0,3.439,3.439,3.439,3.4441,3.4442,3.4443,3.4445,3.4441,3.444,3.4438,0,0,0,0,0,0,0,0,0,0,0,0,0,3.442,3.4419,3.4387,3.4387,3.4387,3.439,3.439,3.439,3.4441,3.4442,3.4444,3.4445,3.4441,3.444,3.4438,0,0,0,0,0,0,0,0,0,0,0,0,0,3.4412,3.4419,3.4387,3.4413,3.4415,3.439,3.439,3.439,3.444,3.4442,3.4444,3.4446,3.4442,3.444,3.4438,3.4386,0,0,3.4432,3.4431,0,0,0,0,0,0,0,0,3.4413,3.4411,3.4409,3.4411,3.4414,3.4417,3.44,3.4388,3.444,3.443,3.4445,3.4447,3.4431,3.443,3.4426,3.4386,3.4386,3.4432,3.4431,3.443,3.4429,0,0,0,0,0,0,0,3.4413,3.4411,3.4388,3.4409,3.4412,3.4423,3.4424,3.4398,3.4419,3.4431,3.4435,3.4435,3.4433,3.4428,3.4426,3.4386,3.4432,3.443,3.4429,3.4428,3.4302,3.43,0,0,0,0,0,0,3.4411,3.4411,3.4388,3.4388,3.4418,3.442,3.4422,3.4414,3.442,3.4423,3.4433,3.4438,3.443,3.4429,3.4426,3.4365,3.443,3.4428,3.4427,3.4304,3.4302,3.43,0,0,0,0,0,0,3.4412,3.4408,3.4388,3.4401,3.4399,3.4418,3.4409,3.4413,3.4408,3.4422,3.4425,3.4425,3.4432,3.4429,3.4396,3.4365,3.4427,3.4425,3.4307,3.4304,3.4301,3.4242,0,0,0,0,0,0,3.4412,3.4408,3.439,3.44,3.4398,3.4359,3.4407,3.4411,3.4405,3.4411,3.4414,3.4417,3.4433,3.4399,3.4394,3.4364,3.4424,3.431,3.4305,3.4302,3.4247,3.4237,3.4229,0,0,0,0,0,3.4413,3.4372,3.4389,3.4385,3.4376,3.4357,3.4355,3.4377,3.4403,3.4383,3.4392,3.4417,3.437,3.4395,3.439,3.4359,3.4312,3.4307,3.4302,3.4251,3.4239,3.4229,0,0,0,0,0,0,3.4355,3.4374,3.4392,3.4353,3.4353,3.4366,3.4342,3.4364,3.4355,3.436,3.4385,3.4385,3.4348,3.4351,3.4378,3.4309,3.4345,3.4339,3.4308,3.4297,3.4288,3.4287,3.4422,0,0,0,0,0,3.4338,3.4323,3.434,3.4303,3.4303,3.4322,3.4315,3.4332,3.4332,3.4331,3.4338,3.4335,3.432,3.4309,3.4296,3.4248,3.4249,3.4225,3.4216,3.4208,3.4202,3.4176,3.4165,3.4284,3.4284,3.4284,0,0,3.4302,3.431,3.4299,3.4292,3.4294,3.4276,3.4322,3.4301,3.4287,3.4327,3.4297,3.4301,3.43,3.4259,3.4242,3.426,3.417,3.4202,3.4196,3.4194,3.417,3.4159,3.4149,3.428,3.4281,3.4282,0,0,3.4226,3.4232,3.4203,3.4204,3.4208,3.4221,3.4214,3.4223,3.4229,3.4199,3.4229,3.4212,3.4186,3.4184,3.4179,3.4105,3.4126,3.41,3.4052,3.4027,3.4017,3.4009,3.3981,3.3971,3.4094,3.4094,3.4094,0,3.418,3.4156,3.4184,3.4161,3.4157,3.4196,3.4165,3.4164,3.4162,3.4157,3.4179,3.4147,3.4149,3.4108,3.409,3.4086,3.4077,3.4098,3.4017,3.4009,3.4002,3.3975,3.3964,3.409,3.4091,3.4091,3.4091,0,3.4098,3.4081,3.4057,3.4056,3.4049,3.4022,3.4044,3.4034,3.4052,3.4063,3.4031,3.4036,3.4024,3.4016,3.4032,3.3977,3.3988,3.4013,3.405,3.3986,3.3962,3.3952,3.4085,3.4087,3.4088,3.4089,0,0,3.3983,3.4001,3.3991,3.3991,3.3998,3.3985,3.3959,3.395,3.394,3.3938,3.3916,3.3894,3.3917,3.3912,3.3929,3.3907,3.3846,3.3934,3.3935,3.3916,3.3783,3.3762,3.375,3.3862,3.386,3.3858,3.3782,0,3.3909,3.3869,3.3893,3.3848,3.3832,3.387,3.3848,3.3849,3.3858,3.3845,3.3855,3.3838,3.3872,3.3869,3.3849,3.3857,3.3819,3.3864,3.3839,3.3837,3.3835,3.3737,3.3715,3.3643,3.3773,3.3771,3.377,0,3.3816,3.3813,3.3766,3.3778,3.3772,3.3751,3.3745,3.3732,3.3734,3.3743,3.3738,3.3761,3.3735,3.3774,3.3737,3.3767,3.3759,3.3762,3.3759,3.3756,3.3798,3.3729,3.3621,3.3609,3.3756,3.3757,3.3758,0,3.3735,3.3718,3.3688,3.3688,3.37,3.3685,3.3689,3.3693,3.3686,3.3681,3.3676,3.3666,3.366,3.3652,3.367,3.3697,3.3631,3.3672,3.3635,3.3634,3.3617,3.3617,3.3504,3.3616,3.3616,3.3616,3.3616,0,3.3648,3.3617,3.3652,3.3633,3.36,3.3629,3.3594,3.3602,3.3606,3.3588,3.362,3.3602,3.363,3.3614,3.3629,3.3595,3.3593,3.3597,3.3601,3.3593,3.3592,3.3586,3.359,3.3613,3.3614,3.3614,3.3615,0,3.355,3.3572,3.3542,3.3557,3.356,3.3535,3.3547,3.353,3.3543,3.352,3.3516,3.3536,3.3519,3.3538,3.3522,3.3532,3.3486,3.3499,3.3486,3.3489,3.345,3.3453,3.3327,3.3311,3.3435,3.3434,3.3433,0,3.3491,3.3469,3.3483,3.3475,3.3478,3.3464,3.3457,3.3485,3.3477,3.3478,3.346,3.3447,3.3437,3.3408,3.342,3.3408,3.3418,3.3375,3.3416,3.3409,3.3415,3.3415,3.3412,3.3366,3.3364,3.3363,3.3362,0,3.3385,3.3398,3.3389,3.3383,3.3376,3.3372,3.3371,3.3362,3.3391,3.3379,3.3364,3.3357,3.3342,3.3328,3.332,3.3322,3.3345,3.335,3.334,3.333,3.3323,3.3325,3.3461,3.3352,3.3353,3.3353,3.3354,3.3354,3.3304,3.3286,3.3293,3.3282,3.3284,3.3283,3.3267,3.328,3.3268,3.3259,3.3276,3.3256,3.3259,3.3251,3.325,3.3234,3.3252,3.3239,3.3235,3.323,3.3224,3.3328,3.3233,3.3233,3.3233,3.3234,3.3234,0,3.3197,3.3205,3.3194,3.3193,3.3183,3.3211,3.3211,3.3201,3.3183,3.3185,3.3176,3.3158,3.3144,3.3156,3.3144,3.3129,3.3139,3.3125,3.3125,3.3124,3.3209,3.3218,3.3116,3.3116,3.3116,3.3116,3.3116,3.3116,3.3141,3.3112,3.3125,3.3097,3.3104,3.3087,3.3084,3.3082,3.3084,3.3063,3.3053,3.3062,3.3067,3.3056,3.3044,3.3048,3.3041,3.3022,3.3029,3.3107,3.3119,3.3129,3.3137,3.3021,3.3021,3.2945,3.2944,3.2944]}]]